Printer-friendly version

IAU Minor Planet Center

Minor Planet Center

MPEC 2000-V08: 2000 UQ30

The following Minor Planet Electronic Circular may be linked-to from your own Web pages, but must not otherwise be redistributed electronically.


Read MPEC 2000-V07 Read MPEC 2000-V09


M.P.E.C. 2000-V08                                Issued 2000 Nov. 2, 16:04 UT

     The Minor Planet Electronic Circulars contain information on unusual
         minor planets and routine data on comets.  They are published
   on behalf of Commission 20 of the International Astronomical Union by the
          Minor Planet Center, Smithsonian Astrophysical Observatory,
                          Cambridge, MA 02138, U.S.A.

             Prepared using the Tamkin Foundation Computer Network

                              MPC@CFA.HARVARD.EDU
          URL http://cfa-www.harvard.edu/iau/mpc.html  ISSN 1523-6714

                                   2000 UQ30

Observations:
     K00U30Q* C2000 10 31.34913 04 07 53.41 +08 17 38.9          18.4        704
     K00U30Q  C2000 10 31.36316 04 07 57.40 +08 17 56.1          18.5        704
     K00U30Q  C2000 10 31.37762 04 08 01.62 +08 18 14.0          18.6        704
     K00U30Q  C2000 10 31.39196 04 08 05.66 +08 18 32.8          19.2        704
     K00U30Q  C2000 10 31.40642 04 08 09.82 +08 18 50.7          19.4        704
     K00U30Q  C2000 11 01.23483 04 12 38.84 +08 36 58.7          18.4 R      853
     K00U30Q  C2000 11 01.23769 04 12 39.71 +08 37 02.9          18.1 R      853
     K00U30Q  C2000 11 01.24034 04 12 40.54 +08 37 06.7          18.4 R      853
     K00U30Q  C2000 11 01.34090 04 13 11.36 +08 39 25.4          18.7        704
     K00U30Q  C2000 11 01.35469 04 13 15.68 +08 39 44.3          19.2        704
     K00U30Q  C2000 11 01.36883 04 13 20.00 +08 40 03.8          18.8        704
     K00U30Q  C2000 11 01.38247 04 13 24.21 +08 40 23.0          18.8        704
     K00U30Q  C2000 11 01.39612 04 13 28.43 +08 40 41.5          18.9        704
     K00U30Q  C2000 11 01.96308 04 16 44.21 +08 53 49.1                      118
     K00U30Q  C2000 11 01.96510 04 16 44.88 +08 53 52.2                      118
     K00U30Q  C2000 11 01.96876 04 16 46.07 +08 53 57.7                      118
     K00U30Q  C2000 11 01.97858 04 16 49.44 +08 54 10.5          17.8 R      046
     K00U30Q  C2000 11 01.97991 04 16 49.92 +08 54 13.2                      046
     K00U30Q  C2000 11 01.98067 04 16 50.18 +08 54 13.3                      046
     K00U30Q  C2000 11 01.98160 04 16 50.49 +08 54 16.1                      046
     K00U30Q  C2000 11 01.98267 04 16 50.70 +08 54 17.2          17.6 R      046

Observer details:
046 Klet.  Observers M. Tichy, M. Kocer.  0.57-m f/5.2 reflector + CCD.
118 Modra.  Observers L. Kornos, J. Toth.  0.6-m f/5.5 reflector + CCD.
704 Lincoln Laboratory ETS, New Mexico.  Observers M. Blythe, F. Shelly,
    M. Bezpalko, M. Elowitz, R. Huber, L. Manguso.  Measurers J. Stuart,
    R. Sayer, J. B. Evans, H. Viggh.  1.0-m f/2.15 reflector + CCD.
853 Biosphere 2 Observatory.  Observer G. J. Garradd.  0.5-m f/8.1 reflector
    + CCD.

Orbital elements:
2000 UQ30                                                            PHA 0.007
Epoch 2000 Oct. 23.0 TT = JDT 2451840.5                 Spahr
M 335.43759              (2000.0)            P               Q
n   0.42418549     Peri.   37.37484     -0.13460416     -0.98877647
a   1.7542797      Node    60.44581     +0.89018942     -0.14940231
e   0.4577126      Incl.    4.27397     +0.43525225     -0.00022302
P   2.32           H   21.8           G   0.15
From 21 observations 2000 Oct. 31-Nov. 1.

Ephemeris:
2000 UQ30                a,e,i = 1.75, 0.46, 4                   q = 0.9513
Date    TT    R. A. (2000) Decl.     Delta      r     Elong.  Phase     V
2000 10 23    03 35.08   +06 13.4    0.180    1.159   153.8    22.2    19.5
2000 11 02    04 16.93   +08 55.5    0.121    1.101   153.2    24.0    18.5
2000 11 12    05 50.75   +15 02.6    0.075    1.050   141.4    36.1    17.8
2000 11 22    09 09.22   +20 05.8    0.062    1.007   106.2    70.4    18.2
2000 12 02    11 42.60   +14 54.7    0.090    0.975    80.3    94.5    19.9
2000 12 12    12 48.54   +10 18.8    0.132    0.956    73.8    98.6    20.9
2000 12 22    13 23.73   +07 16.1    0.178    0.952    74.5    95.2    21.3
2001 01 01    13 47.25   +05 00.9    0.220    0.962    78.1    89.0    21.6

Timothy B. Spahr             (C) Copyright 2000 MPC           M.P.E.C. 2000-V08

Read MPEC 2000-V07 Read MPEC 2000-V09


Our Web policy. Index to the CBAT/MPC/ICQ pages.


Valid HTML 4.01!